Location: Goettingen
(51.5300°N, 9.9433°E)
Time: 04:53:06
(UTC+01:00)

ISS - Visible Passes

Search period start: 13 December 2025 00:00
Search period end: 23 December 2025 00:00
Orbit: 416 x 420 km, 51.6° (Epoch: 12 December)

Date Brightness Start Highest point End Pass type
(mag) Time Alt. Az. Time Alt. Az. Time Alt. Az.
13 Dec -1.1 07:14:39 10° SSW 07:17:21 23° SE 07:20:05 10° E visible
14 Dec -0.8 06:27:25 10° S 06:29:34 16° SE 06:31:44 10° E visible
15 Dec -0.5 05:40:54 10° SSE 05:41:47 11° SE 05:42:41 10° ESE visible
15 Dec -2.5 07:14:40 10° SW 07:17:53 42° SSE 07:21:07 10° E visible
16 Dec -2.0 06:26:56 10° SSW 06:29:57 31° SSE 06:32:59 10° E visible
17 Dec -1.6 05:41:15 20° SSE 05:42:02 22° SE 05:44:43 10° E visible
17 Dec -3.5 07:15:05 10° WSW 07:18:26 70° SSE 07:21:49 10° E visible
18 Dec -0.5 04:55:35 13° ESE 04:55:35 13° ESE 04:56:14 10° ESE visible
18 Dec -3.2 06:28:31 23° SW 06:30:23 55° SSE 06:33:41 10° E visible
19 Dec -2.5 05:42:40 39° SE 05:42:40 39° SE 05:45:32 10° E visible
19 Dec -3.8 07:15:36 10° W 07:18:58 90° NNW 07:22:21 10° E visible
20 Dec -0.5 04:56:39 14° E 04:56:39 14° E 04:57:18 10° E visible
20 Dec -3.8 06:29:35 36° WSW 06:30:48 81° S 06:34:11 10° E visible
21 Dec -2.7 05:43:28 46° E 05:43:28 46° E 05:46:01 10° E visible
21 Dec -3.8 07:16:23 12° W 07:19:25 87° N 07:22:48 10° E visible
22 Dec -0.5 04:57:16 14° E 04:57:16 14° E 04:57:47 10° E visible
22 Dec -3.8 06:30:11 42° W 06:31:12 86° N 06:34:35 10° E visible
